SCP
2 2 2 2 2 2 1 2 2 1 1 1 1 1 1 1 1 1 2 2 2 2 2 2 2 2 3 3 2 2 2 2 1 1 1 1 1 1 1 1 1 1 1
2 2 2 2 2 1 1 1 1 1 1 1 1 1 1 1 1 1 2 2 2 2 2 2 2 2 2 2 2 2 2 2 1 1 1 1 1 1 1 1 1 1 1
2 2 1 1 1 1 1 1 1 1 1 1 1 1 2 2 2 2 2 2 2 2 2 2 2 2 2 2 2 2 2 2 1 1 1 1 1 1 1 1 1 1 1
1 1 1 1 1 1 1 1 1 1 1 1 1 1 2 2 2 2 2 2 2 2 2 3 3 2 2 2 2 2 2 1 1 1 1 1 1 1 1 1 1 1 1
1 1 1 1 1 1 1 1 1 1 1 1 1 1 2 2 3 3 3 3 3 2 3 3 3 3 2 2 2 2 2 2 1 1 1 1 1 1 1 1 1 1 1
1 1 1 1 1 1 1 1 1 1 1 1 1 1 2 3 3 3 3 3 3 2 2 3 3 3 2 2 1 2 2 2 2 2 2 2 1 1 1 1 1 1 1
1 1 1 1 1 1 1 1 1 1 1 1 1 1 2 2 2 2 2 3 2 2 2 3 3 3 2 2 1 2 2 2 3 3 2 2 2 2 1 1 1 1 1
1 1 1 1 1 1 1 1 1 1 1 1 1 1 1 2 2 2 2 2 2 2 2 3 3 3 2 2 2 2 2 2 3 3 2 2 2 2 1 1 1 1 1
2 2 2 2 2 2 1 1 1 1 1 1 2 2 2 2 2 2 2 2 2 2 2 2 2 2 3 3 2 2 2 2 2 2 2 2 2 2 1 1 1 1 1
2 2 2 1 2 2 1 1 1 2 2 2 2 2 2 2 2 2 2 2 2 2 2 2 2 2 3 3 3 2 2 2 2 3 3 2 2 2 2 1 1 1 1
1 1 1 1 1 1 2 2 2 2 2 2 2 2 2 2 2 2 2 2 1 1 2 2 2 2 3 3 3 2 2 2 2 2 3 3 2 2 2 2 1 1 1
1 1 1 1 2 2 2 2 2 2 2 2 2 2 1 1 1 1 1 1 1 1 1 1 1 2 2 2 3 3 2 2 2 2 2 2 2 2 2 2 1 1 1
2 2 2 2 2 2 2 2 2 2 2 2 2 2 2 1 1 1 1 1 1 1 1 1 1 1 1 2 3 4 2 1 1 1 1 2 2 2 2 2 1 1 1
2 3 3 3 3 3 3 2 2 2 2 2 2 2 2 1 1 1 1 1 1 1 1 1 1 1 1 1 2 3 2 1 1 1 1 1 1 1 1 1 1 1 1
2 3 3 4 4 4 3 3 3 3 3 3 3 2 2 2 1 1 1 1 1 1 1 1 1 1 1 1 1 2 2 2 1 0 0 0 0 0 1 1 1 1 1
2 2 3 3 4 5 4 4 4 4 3 3 3 3 2 2 2 2 2 2 2 1 2 2 2 2 2 2 2 2 2 2 1 1 0 0 0 0 0 0 0 0 0
2 2 2 3 3 4 5 5 5 5 4 3 3 2 2 2 2 2 2 2 2 2 2 2 2 2 2 2 2 2 3 3 2 1 1 0 0 0 0 0 0 0 0
3 3 3 3 3 3 4 5 5 5 5 4 3 3 2 2 3 3 2 2 2 2 2 2 2 3 2 2 2 2 3 3 3 2 1 1 1 1 1 1 0 0 0
3 3 3 3 3 3 4 5 5 5 5 5 4 4 3 3 3 4 3 3 2 2 2 2 3 3 3 3 3 3 3 3 3 2 1 1 1 1 1 1 1 0 0
3 3 3 3 3 3 3 4 5 5 5 6 5 5 4 4 4 4 4 3 3 3 3 3 3 3 3 3 4 3 3 3 3 3 2 2 2 2 2 2 1 0 0
3 3 3 3 4 3 3 4 5 5 6 6 6 6 5 4 4 3 3 3 3 4 4 4 4 3 3 4 4 4 4 4 4 4 4 4 4 4 4 3 2 1 1
3 3 3 3 3 3 3 3 4 5 6 7 8 8 7 5 4 3 2 2 2 3 4 4 4 4 4 4 4 4 4 4 4 4 5 5 5 6 6 5 3 2 1
3 3 3 3 3 3 3 2 3 4 6 7 8 8 8 7 5 5 4 3 2 2 3 4 4 4 4 4 4 4 4 4 4 4 4 5 5 6 7 5 3 2 1
4 3 3 3 3 3 3 2 2 4 5 6 7 7 8 7 6 6 5 4 4 3 3 3 4 4 4 4 4 4 4 4 3 4 4 5 6 7 7 5 3 2 1
5 4 3 3 4 4 4 3 3 4 6 6 7 7 6 6 5 5 5 5 5 5 4 4 3 3 3 3 3 3 3 3 3 3 4 6 7 8 7 5 4 2 1
6 5 4 4 5 5 5 4 3 5 6 7 7 6 6 4 3 3 4 5 5 6 6 5 4 3 2 2 2 2 3 3 3 3 5 7 9 8 6 5 4 2 1
Wind_Speed
1 1 0 1 2 2 3 3 3 3 3 3 4 4 3 3 3 3 4 10 11 11 11 11 11 10 10 10 10 9 9 9 8 7 7 7 7 7 6 6 6 6 6
0 0 0 1 1 1 2 2 3 3 3 3 3 3 3 3 2 3 4 7 10 11 12 12 11 11 11 11 10 10 10 9 8 8 8 8 7 7 7 7 7 6 6
0 0 1 1 1 2 2 2 2 2 2 2 3 3 3 3 3 4 4 5 6 10 12 11 11 11 11 11 11 11 10 9 8 8 8 8 8 8 8 7 7 7 6
0 1 1 0 1 1 1 1 2 2 1 2 2 2 2 2 3 4 4 4 4 5 9 11 11 10 10 11 11 11 10 9 9 8 8 8 8 8 8 8 8 8 7
0 1 0 0 1 1 1 2 1 1 1 1 2 2 2 2 2 3 4 4 4 4 5 9 11 11 11 11 11 10 9 9 9 9 9 9 9 8 8 8 8 8 8
0 1 0 0 1 1 1 1 1 1 1 1 1 1 1 1 1 2 2 3 3 4 5 6 6 7 10 9 10 10 10 10 9 9 8 8 8 7 7 8 8 8 8
1 0 1 0 1 0 1 1 1 1 1 1 1 1 1 1 1 1 2 2 3 3 4 4 4 4 5 9 8 8 8 9 9 9 8 8 7 7 7 7 8 8 8
0 0 0 1 1 0 1 1 1 1 1 1 1 1 0 0 1 1 1 2 2 2 3 4 3 3 3 3 5 7 7 7 7 8 8 7 7 7 7 6 7 7 9
1 1 1 0 0 0 1 2 1 2 2 1 1 1 1 1 0 0 0 1 1 1 1 2 4 4 4 3 4 6 8 7 7 7 7 7 7 6 6 7 7 7 7
1 1 1 1 1 0 0 1 1 1 1 1 1 1 1 1 1 0 0 1 0 1 1 2 2 3 3 3 4 7 8 8 7 7 7 7 7 7 7 7 8 8 8
1 2 2 1 1 1 0 1 0 1 1 1 1 1 1 1 1 1 1 1 0 1 1 2 2 2 2 3 3 6 9 9 8 7 7 7 7 6 6 7 7 8 8
1 2 2 2 2 1 1 1 1 1 1 1 1 1 1 0 1 1 1 2 1 1 0 0 1 2 2 2 4 6 9 9 8 7 7 6 6 6 6 7 7 7 8
1 2 2 2 2 1 1 1 1 1 1 1 1 1 1 1 0 0 1 1 1 1 1 1 1 1 1 2 3 6 7 8 8 7 7 6 6 6 6 6 7 7 7
2 2 2 1 2 2 1 1 1 1 0 1 1 1 1 1 1 1 1 1 1 1 1 1 1 1 1 1 2 5 4 8 8 7 7 7 6 6 6 6 6 6 6
1 2 2 2 2 2 2 2 1 1 1 0 1 1 1 1 1 1 0 1 1 2 2 1 1 1 1 2 4 3 3 6 8 7 7 7 7 7 7 6 6 6 6
1 1 1 1 1 1 2 1 1 1 1 1 1 1 1 1 1 1 1 1 1 2 2 2 2 1 1 1 3 2 3 6 8 9 9 8 8 7 7 6 6 6 6
1 1 1 2 2 2 2 1 1 1 1 1 1 1 1 2 2 1 1 1 2 1 2 2 1 1 1 1 2 2 3 4 4 8 9 9 9 8 8 7 7 6 6
1 1 1 1 2 2 2 2 2 2 1 1 1 2 2 2 2 2 1 2 2 1 2 2 2 1 1 1 2 3 3 4 4 7 9 10 10 9 9 8 7 7 6
1 1 1 1 1 2 2 2 2 2 1 1 1 1 1 2 2 2 2 2 2 2 1 2 2 1 1 1 2 3 3 2 4 5 8 10 11 11 10 9 8 8 7
1 1 1 1 1 2 2 2 2 2 1 1 1 1 1 1 2 3 2 2 2 2 1 2 2 1 1 1 1 2 2 2 3 4 4 5 8 11 11 10 9 8 8
1 1 2 2 2 2 3 3 3 2 1 1 1 1 1 3 4 2 2 2 2 2 1 2 2 2 1 1 2 3 3 2 3 3 3 3 4 4 6 8 9 9 8
2 2 2 2 2 3 5 6 5 3 2 1 1 1 1 2 3 3 3 3 2 2 2 2 2 2 2 2 2 3 2 2 3 2 2 4 3 4 4 5 8 9 9
1 2 2 2 2 4 6 7 6 3 2 1 1 1 2 2 3 2 3 3 2 3 3 3 3 3 3 2 2 3 3 3 4 3 2 3 2 3 3 4 8 9 9
1 1 1 2 2 3 5 6 6 3 2 1 1 1 2 2 3 3 2 2 2 3 3 3 3 4 3 2 3 4 4 4 3 2 2 3 3 3 3 3 7 9 9
1 1 1 1 1 2 4 4 4 2 2 2 1 1 1 1 4 5 2 2 3 3 4 3 3 4 5 5 3 2 3 2 3 3 2 3 3 3 3 2 4 7 8
1 1 1 0 1 1 2 3 4 2 2 2 1 0 1 1 2 3 2 2 3 3 4 4 3 4 3 4 4 3 3 3 3 3 2 2 3 2 2 2 1 2 3
Wind_Direction
194 152 198 183 191 168 168 181 201 201 217 226 224 219 216 224 197 174 159 177 181 187 190 192 194 195 199 201 202 201 201 201 200 200 199 202 203 203 203 202 203 201 203
54 23 228 187 189 168 167 180 194 196 217 223 228 224 220 223 195 173 164 177 184 186 188 191 195 199 202 203 205 206 206 207 206 206 203 203 204 207 210 211 208 202 197
101 240 237 206 179 166 167 183 198 198 216 222 223 216 219 226 198 187 180 175 180 189 192 193 196 199 203 206 208 209 211 211 206 206 207 206 207 210 212 211 207 205 203
77 253 230 170 156 157 156 170 199 206 215 232 232 225 214 215 206 193 189 182 175 181 190 193 195 200 204 208 209 210 211 208 207 209 210 207 207 209 211 211 212 211 209
273 283 272 106 198 156 164 191 169 195 213 236 248 229 211 218 213 198 189 184 175 170 173 185 193 199 207 211 211 210 208 206 207 207 209 209 209 209 209 209 210 212 213
54 305 248 132 245 168 159 133 169 205 213 220 251 293 251 201 204 201 192 176 169 173 177 177 185 199 203 208 211 211 208 204 201 202 204 205 206 208 209 210 210 211 212
44 279 342 77 260 212 154 157 150 230 235 169 107 321 301 183 196 198 191 171 171 172 171 172 179 185 190 204 208 205 206 206 200 199 201 205 208 209 210 213 212 214 216
27 47 92 292 300 280 158 193 182 200 243 182 174 212 212 18 289 220 174 174 171 169 173 166 164 170 179 171 176 187 197 197 200 202 202 204 209 211 211 213 216 220 224
45 358 64 315 266 222 172 219 199 206 232 222 202 191 168 180 343 1 149 130 127 135 170 159 166 173 175 168 168 183 191 194 201 206 204 204 207 210 214 218 222 223 225
37 8 18 347 299 323 141 244 192 229 216 227 222 230 215 151 174 194 351 49 73 194 182 189 165 164 165 165 156 165 179 188 196 206 210 210 210 215 219 222 225 228 227
35 18 29 7 348 343 344 308 316 241 233 245 239 229 206 156 178 167 201 210 246 242 188 179 167 153 160 166 163 169 176 183 190 201 208 214 214 214 217 224 230 231 230
48 34 36 24 11 351 345 345 325 284 290 288 289 280 205 209 205 178 194 199 208 233 185 133 186 170 175 167 176 175 179 181 189 196 202 207 208 210 212 220 228 233 233
49 37 30 30 12 354 350 357 2 309 291 282 272 275 274 263 238 175 172 200 211 224 230 223 208 167 188 157 167 166 174 182 189 196 199 202 204 207 211 220 227 233 236
41 40 38 31 5 357 352 9 7 332 346 306 299 322 326 297 282 228 189 185 235 250 235 223 198 175 163 147 174 167 175 186 191 195 199 200 203 207 213 221 226 231 235
35 47 30 22 11 5 359 16 9 352 12 315 309 315 296 288 280 286 255 207 223 246 253 234 231 211 168 152 169 178 176 187 189 194 201 201 201 206 214 219 225 228 233
21 26 11 11 11 17 0 3 358 355 5 356 332 343 316 309 290 273 253 252 247 234 247 239 241 220 212 198 194 193 186 187 198 197 199 201 205 210 215 218 221 226 231
9 14 353 352 357 359 347 333 317 334 360 342 321 329 327 322 326 305 282 274 265 247 245 257 231 213 216 216 227 221 199 198 196 197 200 205 210 214 214 215 216 221 226
2 3 0 339 339 350 348 333 322 335 352 342 332 339 326 318 322 315 309 289 282 266 235 250 260 244 242 225 227 240 228 220 214 205 205 206 210 212 212 212 213 218 226
355 351 350 335 340 341 343 336 323 321 334 338 336 325 323 322 310 303 298 294 287 283 256 245 259 255 253 258 255 266 256 244 234 218 210 210 211 210 211 213 212 214 222
18 358 355 352 345 346 348 343 331 317 342 349 350 358 352 332 320 309 297 307 295 294 279 264 261 266 269 276 261 261 267 263 261 243 228 221 211 210 209 210 210 211 218
1 12 357 349 355 352 343 339 323 312 311 305 314 324 34 29 18 352 324 317 303 293 288 285 270 278 274 275 271 263 261 258 261 249 234 229 211 207 208 214 216 216 219
15 13 10 10 4 351 4 4 350 324 325 320 325 329 0 34 16 12 345 313 292 275 278 277 278 276 281 274 282 274 270 265 262 255 244 239 211 209 202 204 206 209 216
20 17 13 16 17 16 15 7 353 328 324 348 2 350 337 4 27 353 348 336 307 269 252 259 275 270 268 271 270 272 271 264 257 258 260 259 246 240 218 208 200 202 209
358 5 10 9 3 14 16 6 350 319 319 332 344 354 360 6 348 354 339 337 323 320 288 262 261 271 270 271 261 264 269 271 263 264 246 259 258 258 251 214 205 202 210
337 329 337 357 3 10 16 7 356 315 326 321 326 29 31 1 355 359 347 327 323 321 328 327 294 275 266 272 285 295 290 287 279 266 250 256 264 266 254 228 213 208 214
283 280 300 298 344 6 13 5 350 325 330 318 308 240 16 344 331 339 320 312 313 312 321 327 318 296 268 254 251 247 267 277 278 275 267 260 268 275 277 261 240 212 221